Temp
-19 -19 -19 -19 -19 -19 -19 -19 -20 -20 -20 -20 -21 -21 -21 -21 -21 -21 -23 -24 -25 -26 -26 -26 -26 -26 -26 -26 -26 -25 -25 -25 -24 -24 -23 -23 -22 -22 -21 -21 -21 -21 -20
-19 -19 -19 -20 -20 -20 -20 -20 -20 -20 -20 -20 -21 -21 -21 -21 -23 -24 -25 -25 -26 -26 -26 -27 -27 -27 -26 -26 -26 -26 -26 -25 -25 -24 -24 -23 -23 -22 -22 -22 -22 -21 -20
-19 -20 -20 -20 -20 -20 -20 -20 -20 -20 -20 -21 -21 -21 -22 -23 -25 -25 -26 -26 -27 -27 -27 -27 -27 -27 -27 -27 -27 -27 -27 -26 -26 -25 -25 -24 -24 -23 -22 -22 -22 -22 -20
-20 -20 -20 -20 -20 -20 -20 -20 -20 -20 -21 -21 -21 -22 -23 -25 -26 -26 -27 -27 -27 -27 -28 -29 -29 -29 -29 -29 -29 -29 -29 -29 -27 -26 -26 -25 -24 -24 -22 -22 -23 -22 -21
-20 -20 -20 -20 -20 -20 -20 -20 -20 -21 -21 -21 -22 -23 -25 -26 -26 -27 -27 -27 -28 -28 -29 -29 -30 -30 -30 -30 -31 -31 -30 -28 -26 -26 -26 -25 -25 -24 -22 -22 -23 -22 -21
-21 -21 -20 -20 -20 -21 -21 -21 -21 -21 -21 -22 -23 -25 -25 -26 -27 -27 -27 -28 -28 -29 -29 -30 -30 -31 -31 -31 -31 -30 -28 -27 -27 -26 -26 -26 -25 -24 -23 -23 -23 -22 -21
-21 -21 -20 -20 -21 -21 -21 -21 -21 -22 -22 -22 -24 -25 -26 -26 -27 -27 -28 -28 -29 -29 -30 -30 -31 -31 -31 -31 -30 -29 -28 -27 -26 -26 -26 -25 -25 -24 -23 -23 -22 -22 -21
-21 -20 -20 -21 -21 -21 -21 -21 -22 -22 -22 -23 -24 -25 -26 -27 -27 -27 -28 -28 -29 -29 -30 -30 -31 -31 -31 -30 -30 -29 -27 -27 -27 -26 -26 -26 -25 -24 -23 -23 -23 -22 -21
-21 -20 -21 -21 -21 -21 -22 -22 -22 -22 -22 -23 -24 -25 -26 -27 -27 -27 -28 -28 -29 -30 -30 -30 -31 -30 -30 -29 -29 -29 -28 -28 -27 -27 -26 -26 -25 -24 -23 -23 -23 -22 -21
-21 -21 -21 -22 -21 -22 -22 -22 -22 -22 -22 -23 -24 -25 -26 -26 -27 -27 -28 -28 -29 -30 -30 -30 -30 -30 -29 -29 -29 -28 -28 -28 -27 -27 -26 -26 -24 -23 -23 -23 -22 -22 -21
-21 -21 -21 -22 -22 -22 -22 -22 -22 -22 -22 -23 -24 -25 -26 -26 -27 -27 -28 -28 -29 -29 -29 -30 -30 -29 -29 -28 -29 -28 -27 -28 -28 -27 -26 -25 -24 -23 -23 -22 -22 -22 -21
-22 -22 -22 -22 -23 -23 -23 -23 -23 -23 -23 -23 -24 -25 -26 -26 -27 -27 -27 -28 -28 -29 -29 -29 -29 -29 -28 -28 -28 -27 -28 -27 -27 -26 -26 -24 -23 -23 -23 -22 -22 -22 -21
-22 -23 -22 -22 -23 -23 -23 -23 -23 -23 -23 -23 -24 -25 -25 -26 -26 -27 -27 -28 -28 -28 -28 -28 -28 -28 -28 -28 -28 -28 -27 -26 -26 -27 -25 -24 -23 -23 -23 -22 -22 -22 -21
-23 -23 -23 -23 -23 -23 -23 -23 -23 -23 -23 -23 -23 -24 -25 -26 -26 -26 -27 -27 -27 -27 -28 -27 -28 -28 -28 -27 -26 -26 -27 -26 -26 -25 -24 -23 -23 -23 -22 -22 -22 -21 -21
-24 -23 -23 -23 -23 -23 -23 -23 -23 -23 -23 -23 -23 -23 -24 -25 -26 -26 -26 -27 -27 -27 -27 -27 -27 -27 -27 -27 -27 -26 -26 -25 -25 -24 -23 -23 -23 -23 -22 -22 -21 -21 -21
-24 -24 -23 -23 -23 -23 -23 -23 -22 -22 -22 -23 -23 -23 -23 -24 -24 -25 -25 -26 -26 -26 -26 -26 -26 -26 -26 -26 -26 -26 -25 -25 -24 -24 -23 -23 -23 -23 -22 -22 -21 -21 -21
-24 -23 -23 -23 -23 -23 -23 -22 -22 -22 -22 -22 -23 -23 -23 -23 -23 -24 -24 -24 -25 -25 -25 -25 -25 -25 -24 -24 -24 -24 -24 -23 -23 -23 -23 -23 -22 -22 -21 -21 -21 -21 -21
-24 -23 -23 -23 -23 -23 -23 -23 -23 -22 -22 -22 -22 -23 -23 -23 -23 -23 -23 -23 -23 -24 -24 -24 -24 -24 -24 -23 -23 -23 -22 -22 -22 -22 -22 -22 -22 -22 -21 -21 -21 -20 -20
-23 -24 -23 -23 -23 -23 -23 -23 -23 -22 -22 -22 -22 -22 -22 -23 -23 -23 -23 -23 -23 -23 -23 -23 -23 -23 -22 -22 -22 -22 -22 -22 -22 -22 -22 -22 -21 -21 -21 -20 -20 -20 -20
-24 -23 -23 -23 -23 -23 -23 -23 -23 -23 -23 -23 -22 -22 -22 -22 -23 -23 -23 -23 -23 -23 -23 -23 -23 -23 -23 -22 -23 -22 -22 -22 -22 -22 -21 -21 -21 -20 -20 -20 -20 -20 -20
-24 -24 -24 -24 -24 -24 -23 -23 -23 -23 -23 -23 -23 -23 -23 -23 -23 -23 -23 -23 -23 -23 -23 -22 -22 -22 -22 -22 -23 -22 -22 -22 -22 -21 -21 -21 -21 -20 -20 -20 -20 -20 -20
-24 -24 -24 -24 -24 -24 -23 -23 -23 -23 -24 -24 -23 -23 -23 -24 -23 -23 -23 -23 -22 -22 -22 -23 -22 -22 -22 -22 -22 -22 -22 -22 -22 -22 -22 -21 -21 -21 -21 -20 -20 -20 -20
-24 -24 -24 -24 -24 -24 -23 -23 -23 -23 -23 -23 -23 -23 -23 -23 -23 -23 -23 -23 -23 -23 -22 -22 -22 -22 -22 -22 -22 -22 -22 -22 -22 -22 -22 -21 -21 -21 -21 -21 -21 -21 -21
-24 -24 -24 -24 -24 -24 -24 -23 -23 -23 -23 -23 -23 -23 -23 -23 -23 -23 -23 -23 -23 -23 -23 -23 -23 -22 -22 -22 -22 -22 -22 -22 -22 -22 -22 -22 -21 -21 -21 -21 -21 -21 -21
-24 -24 -24 -24 -24 -24 -24 -24 -24 -24 -24 -24 -24 -24 -23 -23 -23 -23 -23 -23 -23 -23 -23 -23 -23 -23 -23 -22 -22 -22 -22 -22 -22 -22 -22 -22 -22 -22 -22 -21 -21 -21 -21
-24 -24 -24 -24 -24 -24 -24 -24 -24 -24 -23 -23 -23 -23 -23 -23 -23 -23 -23 -23 -23 -23 -23 -23 -23 -23 -23 -23 -23 -22 -22 -22 -22 -22 -22 -22 -22 -22 -22 -22 -22 -22 -22
Height
5654 5647 5640 5633 5625 5616 5608 5598 5589 5579 5569 5559 5548 5536 5525 5513 5500 5489 5478 5469 5463 5458 5455 5453 5453 5454 5458 5462 5467 5474 5482 5489 5503 5519 5530 5543 5554 5565 5577 5587 5595 5600 5605
5646 5639 5632 5624 5616 5606 5597 5588 5578 5567 5556 5544 5531 5518 5505 5491 5478 5467 5459 5450 5443 5437 5433 5432 5431 5431 5435 5439 5443 5450 5459 5469 5482 5500 5511 5526 5540 5553 5564 5574 5582 5589 5596
5637 5631 5623 5615 5607 5598 5588 5578 5566 5555 5543 5529 5515 5500 5485 5471 5460 5449 5440 5431 5423 5417 5412 5409 5409 5409 5412 5415 5420 5428 5437 5448 5463 5479 5496 5512 5527 5539 5550 5562 5571 5578 5586
5629 5622 5615 5607 5598 5588 5578 5567 5555 5543 5530 5516 5500 5484 5470 5457 5445 5433 5422 5413 5405 5398 5392 5389 5388 5388 5390 5393 5398 5407 5417 5431 5450 5469 5486 5503 5516 5528 5540 5552 5562 5569 5577
5622 5615 5607 5598 5589 5579 5568 5557 5545 5532 5518 5504 5487 5471 5458 5445 5433 5421 5409 5399 5391 5385 5379 5376 5375 5375 5377 5380 5386 5396 5408 5424 5444 5460 5475 5492 5507 5515 5531 5544 5553 5560 5568
5615 5608 5600 5591 5581 5571 5560 5549 5536 5523 5509 5493 5477 5463 5450 5436 5423 5410 5400 5390 5382 5376 5371 5368 5366 5366 5367 5371 5379 5390 5404 5421 5439 5454 5469 5483 5497 5508 5523 5534 5543 5552 5561
5608 5601 5593 5585 5575 5565 5554 5542 5529 5516 5501 5485 5470 5457 5443 5429 5416 5404 5393 5384 5376 5370 5365 5362 5359 5358 5359 5364 5375 5388 5404 5423 5439 5451 5466 5479 5491 5504 5517 5528 5536 5545 5552
5602 5595 5588 5579 5570 5559 5548 5536 5524 5511 5497 5481 5467 5453 5440 5426 5412 5400 5389 5379 5372 5365 5361 5358 5356 5354 5357 5365 5376 5391 5408 5425 5437 5450 5462 5474 5486 5500 5512 5521 5530 5537 5547
5596 5590 5583 5575 5565 5555 5544 5533 5521 5509 5494 5478 5465 5452 5439 5425 5411 5398 5387 5378 5371 5365 5361 5358 5356 5357 5363 5370 5377 5392 5410 5422 5432 5445 5459 5473 5484 5497 5508 5516 5523 5533 5541
5591 5585 5579 5571 5561 5552 5542 5532 5520 5507 5494 5478 5465 5452 5440 5428 5414 5400 5389 5381 5374 5368 5363 5360 5360 5363 5369 5378 5388 5397 5410 5421 5432 5445 5460 5472 5483 5495 5503 5511 5520 5528 5536
5586 5581 5575 5568 5559 5551 5542 5531 5520 5508 5495 5480 5467 5455 5444 5432 5420 5406 5396 5387 5380 5374 5369 5367 5368 5371 5377 5385 5395 5406 5415 5423 5435 5448 5462 5475 5484 5492 5501 5509 5517 5526 5532
5581 5577 5572 5566 5559 5551 5543 5532 5522 5510 5498 5484 5470 5459 5448 5438 5427 5416 5405 5396 5390 5384 5379 5377 5378 5381 5386 5394 5403 5412 5419 5431 5442 5455 5465 5475 5484 5492 5500 5506 5515 5522 5527
5578 5574 5570 5565 5559 5552 5544 5535 5524 5513 5501 5489 5476 5463 5453 5444 5435 5426 5416 5408 5402 5397 5393 5390 5390 5393 5397 5405 5412 5419 5429 5440 5449 5459 5468 5477 5484 5491 5498 5504 5512 5519 5524
5575 5572 5569 5564 5559 5553 5546 5537 5528 5517 5506 5494 5483 5470 5459 5451 5443 5435 5428 5421 5415 5410 5407 5405 5404 5404 5407 5411 5418 5425 5434 5443 5452 5461 5470 5477 5484 5490 5495 5503 5510 5516 5521
5573 5571 5567 5564 5559 5554 5547 5539 5530 5521 5512 5500 5490 5479 5467 5458 5451 5445 5439 5433 5428 5424 5420 5419 5419 5420 5422 5425 5430 5436 5444 5452 5459 5466 5473 5478 5483 5488 5495 5503 5509 5514 5521
5573 5571 5567 5563 5559 5554 5548 5540 5532 5524 5515 5506 5496 5487 5478 5469 5461 5454 5449 5444 5440 5437 5434 5432 5432 5434 5437 5440 5444 5449 5455 5460 5466 5471 5476 5480 5485 5491 5497 5503 5507 5513 5520
5575 5572 5569 5564 5560 5555 5550 5543 5535 5527 5519 5512 5504 5496 5488 5480 5472 5465 5459 5454 5451 5448 5446 5446 5445 5445 5447 5451 5455 5458 5462 5466 5471 5475 5479 5483 5487 5492 5497 5502 5506 5512 5517
5577 5574 5572 5568 5563 5558 5553 5546 5540 5533 5525 5518 5511 5504 5497 5490 5484 5478 5472 5467 5463 5459 5457 5455 5454 5455 5457 5459 5462 5465 5468 5471 5473 5476 5479 5482 5486 5491 5496 5500 5505 5511 5516
5580 5578 5575 5571 5566 5561 5556 5550 5544 5538 5531 5523 5517 5511 5505 5499 5494 5489 5484 5479 5475 5472 5469 5467 5466 5465 5465 5465 5466 5468 5470 5471 5474 5476 5479 5482 5486 5490 5494 5498 5504 5509 5514
5584 5581 5578 5574 5570 5565 5560 5555 5549 5543 5537 5531 5525 5518 5512 5507 5503 5498 5494 5489 5485 5482 5479 5477 5475 5473 5472 5473 5473 5473 5473 5474 5475 5477 5480 5482 5486 5489 5493 5498 5503 5506 5510
5590 5587 5584 5580 5576 5571 5566 5560 5554 5548 5543 5537 5531 5525 5520 5515 5510 5505 5501 5497 5493 5490 5487 5485 5483 5482 5480 5478 5477 5476 5476 5476 5477 5478 5479 5481 5484 5487 5491 5495 5499 5502 5506
5599 5596 5592 5588 5583 5578 5573 5567 5562 5556 5551 5545 5539 5533 5528 5523 5518 5513 5508 5504 5500 5497 5494 5491 5488 5486 5484 5483 5482 5480 5479 5478 5478 5478 5479 5481 5483 5485 5488 5491 5495 5498 5501
5608 5605 5601 5596 5592 5586 5581 5576 5571 5565 5559 5554 5548 5542 5537 5531 5525 5520 5515 5510 5506 5502 5498 5495 5492 5489 5487 5485 5483 5482 5481 5479 5479 5478 5479 5479 5481 5483 5485 5487 5490 5492 5494
5617 5613 5609 5604 5599 5594 5589 5583 5577 5571 5565 5560 5554 5549 5543 5537 5531 5525 5520 5516 5511 5506 5502 5498 5494 5491 5488 5485 5482 5480 5478 5477 5476 5476 5476 5476 5476 5478 5479 5481 5483 5485 5486
5627 5622 5618 5613 5607 5601 5595 5589 5583 5576 5570 5564 5558 5552 5546 5540 5534 5529 5524 5519 5514 5509 5504 5500 5495 5490 5486 5482 5479 5476 5474 5472 5472 5471 5470 5470 5470 5471 5472 5473 5475 5477 5478
5635 5630 5625 5619 5613 5608 5601 5595 5588 5581 5574 5567 5561 5555 5549 5542 5537 5531 5525 5519 5514 5509 5503 5497 5492 5487 5482 5478 5473 5469 5467 5465 5464 5463 5463 5464 5464 5464 5465 5465 5466 5468 5469
Wind_Speed
37 38 42 44 47 47 48 50 51 51 53 55 55 57 61 62 64 62 60 56 55 53 56 60 63 65 66 68 70 71 71 69 66 65 69 68 64 62 57 52 49 46 49
37 41 43 45 44 46 49 51 52 52 53 56 57 60 62 63 59 53 48 51 52 53 55 57 59 61 62 63 64 65 65 65 64 64 68 69 62 59 54 53 49 50 52
40 42 42 42 44 49 49 52 52 53 55 57 59 61 62 55 50 51 49 47 47 49 51 53 55 57 58 60 60 61 62 62 59 61 65 61 61 60 58 51 45 47 45
40 41 41 45 50 46 48 51 53 53 55 57 59 60 53 48 48 46 44 41 41 41 42 42 42 43 44 45 46 48 49 52 55 57 54 54 55 52 56 49 48 47 47
39 39 44 46 45 46 50 52 52 54 54 55 58 52 48 47 44 43 40 36 34 31 30 29 29 29 30 34 35 39 43 57 52 55 55 61 60 66 55 47 47 51 48
36 40 41 43 45 47 50 51 52 51 51 57 52 45 47 44 43 40 34 31 28 25 23 22 22 24 27 29 35 37 49 62 40 47 55 55 57 57 53 46 46 50 45
37 37 40 43 44 47 49 49 50 45 53 52 46 46 45 44 41 37 32 28 25 23 19 17 18 19 22 30 35 41 64 54 49 46 50 54 57 55 48 41 44 44 44
34 34 41 41 43 46 46 48 42 46 53 48 43 44 43 42 39 35 31 26 23 18 14 12 11 11 23 32 39 58 65 44 42 53 49 54 56 50 43 40 37 44 40
31 34 39 39 41 41 44 40 40 45 52 44 42 42 41 42 41 34 28 23 19 15 10 7 5 16 23 33 46 64 58 43 48 53 54 54 49 42 37 37 39 41 34
30 32 37 35 36 38 38 37 42 45 50 43 41 39 39 41 43 34 28 25 21 16 11 5 6 20 26 34 52 57 60 51 53 55 53 52 46 35 34 34 40 38 32
27 28 31 31 29 32 34 38 40 43 48 47 40 37 36 40 41 35 29 25 22 19 14 10 13 21 26 31 56 59 61 54 50 51 50 43 37 34 34 34 37 34 31
19 25 26 24 23 31 36 40 43 44 44 49 42 37 35 36 37 38 30 28 27 24 18 16 21 22 26 36 47 67 59 56 49 42 38 36 36 36 34 35 37 33 32
17 20 22 19 23 28 32 36 41 44 44 45 47 38 35 33 33 34 37 31 27 29 30 24 21 21 24 33 28 33 40 49 43 39 37 35 37 35 33 37 37 31 33
14 17 17 17 22 26 30 34 40 44 44 43 45 44 35 32 32 32 30 32 35 26 26 33 30 24 24 25 26 32 38 39 38 37 37 35 35 34 35 38 34 30 35
15 16 15 19 20 24 27 34 36 39 42 41 42 44 44 37 30 29 30 28 28 31 30 27 29 30 32 32 33 35 35 35 34 34 33 33 32 33 35 33 29 32 34
17 20 19 19 19 23 28 32 33 36 38 43 41 41 43 44 40 32 28 28 27 24 25 26 25 23 24 27 28 29 29 29 27 27 26 25 27 28 32 29 29 34 34
17 22 23 23 19 23 29 33 36 39 39 35 43 43 40 41 41 43 38 32 27 24 23 21 21 22 19 18 22 23 26 24 23 22 22 19 23 28 33 29 32 34 33
15 18 22 24 26 26 30 33 36 37 37 38 36 44 45 43 39 38 38 39 35 32 27 21 18 16 16 18 20 21 21 20 19 19 20 21 27 31 30 31 35 34 30
17 17 23 25 22 27 27 30 31 33 35 36 36 35 39 41 41 40 38 35 34 33 29 23 21 17 13 12 13 15 17 19 20 21 23 24 27 28 31 35 35 31 29
28 26 26 26 28 29 30 31 33 36 33 34 35 34 34 34 37 38 39 35 34 31 28 26 25 22 16 11 9 11 14 16 17 18 19 22 24 27 30 33 33 32 31
34 34 34 34 34 33 32 32 33 35 37 39 37 36 36 32 31 32 31 32 32 31 28 27 23 19 16 14 12 9 6 7 10 13 16 21 24 27 30 33 34 33 31
43 43 42 42 43 42 42 43 42 42 43 45 48 48 48 48 44 36 32 27 25 24 25 24 20 18 17 13 8 4 3 4 5 7 10 15 19 25 29 31 31 30 29
44 44 44 44 44 45 44 44 43 43 42 40 41 43 45 45 44 39 39 38 33 24 19 19 19 18 14 11 10 9 8 7 8 10 12 13 16 19 22 24 26 27 28
44 43 43 43 43 42 41 39 39 39 39 39 39 40 41 43 45 46 43 39 37 35 31 27 20 17 18 15 11 10 9 10 13 16 18 20 22 23 24 26 27 28 29
49 48 49 48 48 46 44 40 37 37 36 34 35 37 39 42 43 43 44 44 46 39 32 29 30 29 24 22 20 16 15 15 15 14 17 21 25 26 27 28 28 28 29
50 51 53 54 55 54 55 54 47 40 36 34 33 34 35 38 40 39 40 43 47 50 42 33 33 33 32 31 23 20 20 19 19 19 19 19 19 19 21 22 24 24 25
Wind_Direction
307 311 313 312 315 316 317 318 318 315 312 311 308 306 308 306 303 297 293 287 281 274 269 265 261 257 254 251 250 249 247 246 246 233 228 228 231 230 227 227 225 227 223
311 312 314 317 318 320 321 319 319 316 315 314 313 314 311 309 305 301 297 289 282 276 270 266 262 259 255 253 249 247 244 243 241 228 225 225 225 225 222 220 219 225 222
312 315 317 319 320 320 320 321 321 319 319 320 319 317 315 313 309 305 302 294 286 279 273 267 263 260 257 253 249 245 243 239 231 221 218 217 219 219 219 214 214 222 224
314 318 320 321 321 322 322 326 325 323 323 324 321 321 319 318 316 314 310 303 296 289 280 272 265 261 256 250 242 233 225 222 198 190 200 197 214 217 216 213 210 216 224
319 321 321 324 326 327 329 329 328 327 329 328 327 326 327 326 324 321 316 311 306 296 284 274 266 257 246 237 225 216 210 184 173 190 195 199 206 215 214 213 212 214 220
318 320 326 329 333 331 333 332 331 335 335 333 333 334 332 332 330 327 323 318 312 303 290 278 267 257 243 228 208 201 190 179 182 182 195 205 209 216 215 217 213 212 216
318 325 332 332 333 333 336 336 338 341 342 339 341 340 340 339 337 334 330 325 315 308 295 282 273 253 235 199 194 184 177 173 181 182 196 202 209 213 217 214 208 208 212
323 332 332 332 334 337 339 342 345 350 348 347 347 346 348 348 345 341 339 333 327 319 306 289 271 234 181 180 178 172 171 169 177 186 190 209 211 213 211 210 208 204 208
326 330 331 333 339 343 345 347 356 355 354 353 354 353 357 358 357 354 353 353 353 350 340 312 244 174 174 170 173 176 168 172 182 187 196 208 212 205 204 206 203 201 207
325 329 330 337 346 350 351 359 1 0 1 0 0 1 4 4 7 8 9 11 11 11 14 18 157 161 164 166 164 165 180 182 186 190 196 205 209 202 201 201 198 198 206
326 331 335 345 2 6 2 2 3 5 5 7 6 6 7 11 15 19 23 25 30 31 45 67 129 147 156 166 173 178 184 188 188 193 199 202 205 201 200 198 195 200 204
334 340 343 351 3 9 12 15 14 11 10 12 11 12 13 15 21 28 34 36 39 48 66 90 121 136 151 162 172 184 195 198 198 197 196 195 197 197 198 197 197 202 204
350 353 348 350 3 8 7 10 14 16 15 16 18 18 19 22 24 32 41 47 50 59 66 80 106 121 142 162 174 188 189 197 197 196 190 193 195 197 197 197 198 203 203
355 357 351 353 8 8 9 13 18 16 17 20 22 25 26 28 32 33 39 45 55 65 74 77 84 103 121 144 150 154 167 176 174 176 182 190 196 197 195 195 199 204 199
7 356 353 356 4 4 6 8 12 18 22 23 28 29 33 33 32 39 40 45 51 60 65 81 92 93 99 115 130 142 150 156 165 175 183 190 197 199 195 193 200 202 195
18 10 358 357 358 356 5 7 16 19 23 29 29 33 35 38 39 36 40 45 50 54 68 74 84 98 113 121 129 140 151 160 167 175 184 194 200 201 193 195 202 195 194
44 41 33 31 18 14 23 25 22 24 26 29 34 34 35 38 41 44 43 44 44 50 58 64 82 100 119 138 152 159 164 170 178 187 193 203 196 195 193 201 196 193 193
49 38 35 40 42 36 30 36 35 34 31 30 30 34 36 36 40 43 46 48 49 49 48 54 73 88 109 129 153 172 182 193 196 198 204 201 190 190 201 199 194 194 194
51 38 37 30 31 32 33 29 28 34 37 34 31 32 32 36 36 38 42 45 48 51 57 61 65 74 94 126 154 173 184 191 192 188 183 182 188 198 200 196 194 196 201
54 48 44 40 38 35 33 31 31 33 36 35 37 36 34 36 34 32 33 36 40 44 47 49 52 59 71 88 115 148 166 172 175 179 185 192 198 200 198 196 198 204 210
59 56 53 51 50 48 46 43 39 36 36 36 37 34 37 41 39 38 31 29 34 36 36 40 39 39 48 54 58 80 127 173 187 192 198 199 198 197 199 203 206 212 217
63 62 61 58 56 53 51 50 50 49 48 46 46 43 39 35 32 28 23 23 25 25 25 26 26 29 31 18 16 41 90 132 154 167 187 197 204 207 208 212 216 219 223
59 56 55 53 50 48 48 47 45 44 42 43 43 40 37 34 33 31 26 21 19 16 11 9 7 10 6 1 2 345 300 263 232 216 209 210 211 212 214 217 220 223 226
49 47 44 42 41 40 38 36 33 33 34 36 34 31 29 29 29 29 27 24 22 17 7 2 354 335 324 329 322 303 296 294 271 252 241 234 229 226 225 225 227 229 231
53 50 46 42 38 34 29 26 25 24 23 21 21 21 21 20 21 19 18 14 10 3 358 2 2 350 331 312 297 286 272 264 261 264 257 250 246 242 239 237 237 237 238
50 48 43 40 37 32 30 30 23 16 13 12 12 11 10 9 8 8 5 2 0 356 353 344 340 337 335 332 303 274 265 257 252 249 249 250 249 244 239 238 236 233 233